Showing default

DB-WALI-WMU, 68443

Orbit data source: Space-Track

DB-WALI-WMU, 68443 is a payload satellite owned by NearSpaceLaunch (US) in SSO that was launched on Mon, 30 Mar 2026 UTC via an FALCON 9 launch vehicle from the Air Force Western Test Range (AFWTR). Payload-class satellites include a variety of spacecraft equipped with specific instruments for various scientific and technological missions. These include communications satellites like Starlink; space stations such as the ISS; scientific satellites like the Hubble; Earth observation satellites from companies like Planet Labs, Umbra, and HawkEye 360; GPS; miniature CubeSats for education and research; and military/defense satellites.

Loading next visibility...
Identifier
68443, 2026-067AD
Orbit
SSO
Country
Flag of USUS
Related business
Manufacturer
NearSpaceLaunch
Mission
Operational spacecraft
Bus & Motor
THINSAT 0.5U, Unknown motor
Mass
0.5 kg wet, 0.5 kg dry
Launch date (UTC)
2026-03-30 (3 months ago)
Launch vehicle
FALCON 9
Launch site
Air Force Western Test Range (AFWTR)
Object type
Payload
Rocket body
Debris
Shape & HBR
Unknown shape, 1.1 m
Radar Cross Section
Medium (>0.1 m² and <1 m²)

Expand to show TLE details & history
Last TLE update: 1 day ago

TLE from 1 day ago
0 DB-WALI-WMU
1 68443U 26067AD  26170.35626367  .00004297  00000-0  21686-3 0  9998
2 68443  97.4555 128.7027 0006391  72.7571 287.4362 15.17625879 12261
Epoch: 2026-06-19T08:33Z
TLE epoch observation values (Epoch: 2026-06-19T08:33:01.181Z)
Latitude
0.00003°
Longitude
92.86136°
Altitude
514.786 km
Speed
7.607 km/s
True Right ascension
08h 34m 48s
True Declination
0° 00' 00"
Sunlit
Object was in daylight at epoch
Visualization orbit readout
Latitude
Unknown
Longitude
Unknown
Altitude
Unknown
Speed
Unknown
Apparent Right ascension
Unknown
Apparent Declination
Unknown
Sunlit
N/A
Visualization observer readout
Local Sidereal Time
07:14:00
Azimuth
Unknown
Elevation
Unknown
Doppler factor
Unknown
Orbital elements
Apogee altitude
514.391 km
Perigee altitude
505.587 km
Semi-major axis
6,888.126 km
Eccentricity
0.00064
Inclination
97.4555°
RAAN
128.7027°
Arg. of periapsis
72.7571°
True anomaly
287.36631°
Mean anomaly
287.4362°
Eccentric anomaly
287.40126°
Mean motion
3.79657 °/min
Orbital period
94.82 mins
BSTAR
0.00021686
Loading maneuver chart data...
Computing Atmospheric mass density...
Loading historical data...
Loading historical data...
Loading historical data...
Loading historical data...
Loading historical data...
Loading historical data...
Loading historical data...

Documentation

Showing up to 5 results
|